RYR201 EFHK-EDDH

Flight info

Callsign RYR201
Flight time N/A
Altitude 38000
Route NUNTO Y369 REKDO DCT KOSKA DCT GIMRU T503 MICOS N850 BOGMU BOGMU3P
Aircraft B738/M-SDE2E3FGHIRWXY/LB1

Departure

Time 2026-04-23 18:33
Airport Helsinki Vantaa Airport (EFHK)

Arrival

Time N/A
Airport Hamburg Helmut Schmidt Airport (EDDH)
Time Latitude Longitude Altitude Speed Heading
2026-04-23 17:48 60.31873 24.96542 166 ft 0 kts 137°
2026-04-23 18:17 60.31877 24.96534 166 ft 4 kts 138°
2026-04-23 18:17 60.31898 24.96501 166 ft 4 kts 150°
2026-04-23 18:17 60.31921 24.96484 166 ft 4 kts 193°
2026-04-23 18:17 60.31939 24.96508 166 ft 4 kts 227°
2026-04-23 18:18 60.31955 24.96543 166 ft 1 kts 227°
2026-04-23 18:18 60.31955 24.96544 166 ft 1 kts 227°
2026-04-23 18:22 60.31949 24.96530 166 ft 5 kts 227°
2026-04-23 18:22 60.31909 24.96441 166 ft 10 kts 227°
2026-04-23 18:23 60.31878 24.96373 166 ft 9 kts 228°
2026-04-23 18:23 60.31856 24.96199 166 ft 4 kts 282°
2026-04-23 18:24 60.31896 24.96089 166 ft 11 kts 316°
2026-04-23 18:24 60.31925 24.95958 168 ft 10 kts 249°
2026-04-23 18:24 60.31871 24.95829 168 ft 16 kts 228°
2026-04-23 18:25 60.31685 24.95420 170 ft 20 kts 227°
2026-04-23 18:25 60.31593 24.95217 169 ft 19 kts 227°
2026-04-23 18:25 60.31503 24.95022 168 ft 19 kts 227°
2026-04-23 18:25 60.31417 24.94831 165 ft 18 kts 227°
2026-04-23 18:26 60.31328 24.94636 160 ft 20 kts 227°
2026-04-23 18:26 60.31236 24.94432 158 ft 20 kts 227°
2026-04-23 18:26 60.31145 24.94233 157 ft 19 kts 227°
2026-04-23 18:26 60.31071 24.94068 157 ft 13 kts 227°
2026-04-23 18:27 60.31039 24.93988 157 ft 3 kts 239°
2026-04-23 18:27 60.31033 24.93943 158 ft 4 kts 266°
2026-04-23 18:27 60.31033 24.93933 158 ft 0 kts 266°
2026-04-23 18:29 60.31033 24.93932 158 ft 0 kts 266°
2026-04-23 18:29 60.31033 24.93909 158 ft 5 kts 271°
2026-04-23 18:29 60.31038 24.93869 158 ft 0 kts 289°
2026-04-23 18:30 60.31040 24.93860 158 ft 4 kts 289°
2026-04-23 18:30 60.31077 24.93763 158 ft 12 kts 320°
2026-04-23 18:30 60.31138 24.93676 157 ft 7 kts 354°
2026-04-23 18:31 60.31157 24.93698 157 ft 0 kts 47°
2026-04-23 18:33 60.31259 24.93925 158 ft 57 kts 47°
2026-04-23 18:33 60.31693 24.94880 169 ft 124 kts 47°
2026-04-23 18:33 60.32372 24.96400 408 ft 155 kts 45°
2026-04-23 18:33 60.33112 24.97966 1198 ft 151 kts 40°
2026-04-23 18:34 60.33820 24.99528 1993 ft 152 kts 43°
2026-04-23 18:34 60.34537 25.01120 2717 ft 154 kts 43°
2026-04-23 18:34 60.35245 25.02688 3508 ft 155 kts 43°
2026-04-23 18:34 60.36039 25.04433 3937 ft 180 kts 43°
2026-04-23 18:35 60.36966 25.06477 4010 ft 214 kts 44°
2026-04-23 18:35 60.38025 25.08819 4143 ft 233 kts 44°
2026-04-23 18:35 60.39175 25.11315 4519 ft 250 kts 39°
2026-04-23 18:35 60.40725 25.12801 5253 ft 250 kts
2026-04-23 18:36 60.42442 25.12431 6180 ft 252 kts 341°
2026-04-23 18:36 60.43949 25.10603 7035 ft 256 kts 317°
2026-04-23 18:36 60.44919 25.07570 8028 ft 262 kts 293°
2026-04-23 18:36 60.45098 25.03850 8864 ft 276 kts 266°
2026-04-23 18:37 60.44515 25.00062 9728 ft 288 kts 252°
2026-04-23 18:37 60.43611 24.96358 10273 ft 304 kts 249°
2026-04-23 18:37 60.42554 24.92437 10478 ft 330 kts 247°
2026-04-23 18:37 60.41401 24.88266 10833 ft 347 kts 247°
2026-04-23 18:38 60.40204 24.83961 11497 ft 354 kts 247°
2026-04-23 18:38 60.38995 24.79599 12282 ft 357 kts 248°
2026-04-23 18:38 60.37781 24.75181 13070 ft 363 kts 248°
2026-04-23 18:38 60.36556 24.70691 13855 ft 367 kts 249°
2026-04-23 18:39 60.35324 24.66146 14578 ft 371 kts 249°
2026-04-23 18:39 60.34080 24.61546 15342 ft 375 kts 250°
2026-04-23 18:39 60.32820 24.56885 16080 ft 380 kts 250°
2026-04-23 18:39 60.31549 24.52187 16810 ft 385 kts 250°
2026-04-23 18:40 60.30259 24.47421 17544 ft 389 kts 251°
2026-04-23 18:40 60.28970 24.42668 18261 ft 394 kts 251°
2026-04-23 18:40 60.27628 24.37732 18849 ft 398 kts 251°
2026-04-23 18:40 60.26306 24.32877 19430 ft 403 kts 251°
2026-04-23 18:41 60.24949 24.27908 19963 ft 407 kts 251°
2026-04-23 18:41 60.23578 24.22899 20446 ft 411 kts 251°
2026-04-23 18:41 60.22190 24.17840 20931 ft 415 kts 251°
2026-04-23 18:41 60.20785 24.12734 21458 ft 418 kts 251°
2026-04-23 18:42 60.19369 24.07600 21963 ft 422 kts 251°
2026-04-23 18:42 60.17939 24.02419 22440 ft 426 kts 251°
2026-04-23 18:42 60.16492 23.97198 22865 ft 430 kts 251°
2026-04-23 18:42 60.15027 23.91944 23333 ft 433 kts 251°
2026-04-23 18:43 60.13548 23.86653 23713 ft 437 kts 251°
2026-04-23 18:43 60.12056 23.81320 24116 ft 439 kts 251°
2026-04-23 18:43 60.10554 23.75962 24529 ft 442 kts 251°
2026-04-23 18:43 60.09045 23.70583 24902 ft 444 kts 251°
2026-04-23 18:44 60.07525 23.65173 25280 ft 447 kts 251°
2026-04-23 18:44 60.05995 23.59731 25642 ft 450 kts 251°
2026-04-23 18:44 60.04453 23.54257 26005 ft 453 kts 251°
2026-04-23 18:44 60.02900 23.48761 26368 ft 456 kts 251°
2026-04-23 18:45 60.01331 23.43223 26715 ft 458 kts 251°
2026-04-23 18:45 59.99755 23.37674 27055 ft 461 kts 251°
2026-04-23 18:45 59.98167 23.32096 27392 ft 463 kts 251°
2026-04-23 18:45 59.96567 23.26490 27723 ft 466 kts 251°
2026-04-23 18:46 59.94957 23.20864 28039 ft 469 kts 251°
2026-04-23 18:46 59.93332 23.15198 28349 ft 471 kts 251°
2026-04-23 18:46 59.91696 23.09511 28668 ft 474 kts 251°
2026-04-23 18:46 59.90054 23.03813 28968 ft 476 kts 251°
2026-04-23 18:47 59.88394 22.98069 29180 ft 478 kts 250°
2026-04-23 18:47 59.86736 22.92354 29637 ft 477 kts 250°
2026-04-23 18:47 59.85074 22.86647 30083 ft 475 kts 250°
2026-04-23 18:47 59.83418 22.80973 30461 ft 474 kts 250°
2026-04-23 18:48 59.81766 22.75319 30793 ft 474 kts 250°
2026-04-23 18:48 59.80112 22.69667 31157 ft 473 kts 250°
2026-04-23 18:48 59.78460 22.64036 31546 ft 471 kts 250°
2026-04-23 18:48 59.76812 22.58429 31937 ft 470 kts 250°
2026-04-23 18:49 59.75160 22.52837 32267 ft 470 kts 250°
2026-04-23 18:49 59.73508 22.47249 32612 ft 469 kts 250°
2026-04-23 18:49 59.71859 22.41679 33024 ft 467 kts 250°
2026-04-23 18:49 59.70215 22.36138 33450 ft 466 kts 250°
2026-04-23 18:50 59.69682 22.34342 33575 ft 465 kts 250°
2026-04-23 18:50 59.66933 22.25110 34139 ft 464 kts 250°
2026-04-23 18:50 59.65312 22.19685 34423 ft 464 kts 250°
2026-04-23 18:50 59.63669 22.14197 34717 ft 464 kts 250°
2026-04-23 18:51 59.62023 22.08717 35034 ft 463 kts 249°
2026-04-23 18:51 59.60379 22.03259 35330 ft 462 kts 249°
2026-04-23 18:51 59.58736 21.97816 35623 ft 460 kts 249°
2026-04-23 18:51 59.57100 21.92417 36004 ft 457 kts 249°
2026-04-23 18:52 59.55467 21.87032 36265 ft 458 kts 249°
2026-04-23 18:52 59.53831 21.81646 36487 ft 459 kts 248°
2026-04-23 18:52 59.52189 21.76248 36739 ft 459 kts 248°
2026-04-23 18:52 59.50548 21.70873 37025 ft 458 kts 248°
2026-04-23 18:53 59.49463 21.67328 37248 ft 456 kts 248°
2026-04-23 18:53 59.47825 21.61988 37535 ft 455 kts 248°
2026-04-23 18:53 59.46186 21.56652 37746 ft 456 kts 248°
2026-04-23 18:53 59.44543 21.51315 37954 ft 457 kts 248°
2026-04-23 18:54 59.42890 21.45945 37940 ft 462 kts 248°
2026-04-23 18:54 59.39529 21.35068 37981 ft 470 kts 247°
2026-04-23 18:55 59.36107 21.24078 37960 ft 473 kts 247°
2026-04-23 18:55 59.32660 21.13069 37960 ft 475 kts 247°
2026-04-23 18:56 59.29200 21.02063 37919 ft 474 kts 247°
2026-04-23 18:56 59.25740 20.91103 37952 ft 473 kts 247°
2026-04-23 18:57 59.22291 20.80217 37965 ft 471 kts 247°
2026-04-23 18:57 59.18842 20.69383 37966 ft 469 kts 247°
2026-04-23 18:58 59.15009 20.58979 37978 ft 474 kts 240°
2026-04-23 18:58 59.10922 20.49017 37961 ft 473 kts 240°
2026-04-23 18:59 59.06788 20.39013 37990 ft 471 kts 240°
2026-04-23 18:59 59.02689 20.29070 37993 ft 474 kts 239°
2026-04-23 19:00 58.98521 20.18990 37992 ft 484 kts 239°
2026-04-23 19:00 58.94300 20.08858 37989 ft 487 kts 239°
2026-04-23 19:01 58.90028 19.98665 37968 ft 487 kts 239°
2026-04-23 19:01 58.85752 19.88506 37994 ft 488 kts 239°
2026-04-23 19:02 58.81461 19.78349 37992 ft 488 kts 239°
2026-04-23 19:02 58.77167 19.68227 37999 ft 488 kts 239°
2026-04-23 19:03 58.72867 19.58133 37997 ft 487 kts 239°
2026-04-23 19:03 58.68571 19.48092 37970 ft 485 kts 238°